Tracking 22779 objects as of 10-Apr-2021
HD Live streaming from Space Station
objects crossing your sky now

NAVSTAR 18 (USA 50)

Track NAVSTAR 18 (USA 50) now!
NAVSTAR 18 (USA 50) is classified as:


NORAD ID: 20452
Int'l Code: 1990-008A
Perigee: 21,164.7 km
Apogee: 21,243.0 km
Inclination: 54.7 °
Period: 759.5 minutes
Semi major axis: 27574 km
RCS: 1.5533 m2 (large)
Launch date: January 24, 1990
Source: United States (US)
Launch site: AIR FORCE EASTERN TEST RANGE (AFETR)
aabbcc
Your satellite tracking list
Your tracking list is empty




NASA's NSSDC Master Catalog

Two Line Element Set (TLE):
1 20452U 90008A   21098.35667229 -.00000048  00000-0  00000-0 0  9993
2 20452  54.7199 199.8338 0014200 259.1329 192.4730  1.89597716220484
Source of the keplerian elements: AFSPC